Stations météo

réclame
Mon MeteoGroup
S. Maria Di Leuca, Italie (16360): Température de l'air & dewpoint: 16.06.2018 19:00:00 - 22.06.2018 19:00:00 (CEST)S. Maria Di Leuca, Italie (16360): Vitesse du vent: 16.06.2018 19:00:00 - 22.06.2018 19:00:00 (CEST)S. Maria Di Leuca, Italie (16360): Direction du vent: 16.06.2018 19:00:00 - 22.06.2018 19:00:00 (CEST)S. Maria Di Leuca, Italie (16360): reduced air pressure: 16.06.2018 19:00:00 - 22.06.2018 19:00:00 (CEST)S. Maria Di Leuca, Italie (16360): visibility: 16.06.2018 19:00:00 - 22.06.2018 19:00:00 (CEST)S. Maria Di Leuca, Italie (16360): Ensoleillement: 16.06.2018 19:00:00 - 22.06.2018 19:00:00 (CEST)
Date & Time tt [°C] td [°C] ff [km/h] ff [knt] dd ppp [hPa] vv [km] sd [min]
22.06.2018 19:00:00 23,0 20,7 13 7 SW 1010,9 20 60
22.06.2018 18:00:00 23,4 19,1 16 9 SW 1010,9 20 60
22.06.2018 17:00:00 23,4 18,9 15 8 SW 1011,1 20 60
22.06.2018 16:00:00 23,8 18,0 13 7 SW 1011,6 20 60
22.06.2018 15:00:00 23,8 17,5 11 6 SW 1011,9 20 60
22.06.2018 14:00:00 23,6 19,5 13 7 SW 1012,3 20 60
22.06.2018 13:00:00 23,2 19,5 11 6 SW 1012,6 20 60
22.06.2018 12:00:00 23,6 19,5 11 6 WSW 1012,5 20 60
22.06.2018 11:00:00 23,4 18,9 9 5 WSW 1012,4 20 60
22.06.2018 10:00:00 23,0 19,6 8 4 WSW 1012,4 20 60
22.06.2018 09:00:00 22,8 19,4 11 6 W 1012,4 20 60
22.06.2018 08:00:00 22,2 19,2 5 3 W 1012,4 20 60
22.06.2018 07:00:00 22,0 19,2 4 2 W 1012,6 12 12
22.06.2018 06:00:00 22,0 19,0 4 2 W 1012,6 10 0
22.06.2018 05:00:00 22,0 18,4 8 4 W 1013,0 10 -
22.06.2018 04:00:00 22,0 18,8 8 4 W 1013,3 10 -
22.06.2018 03:00:00 22,0 19,2 9 5 WSW 1013,6 10 -
22.06.2018 02:00:00 22,0 19,6 8 4 WSW 1014,0 10 -
22.06.2018 01:00:00 22,0 19,5 8 4 WSW 1014,0 10 -
22.06.2018 00:00:00 22,2 19,9 8 4 WSW 1014,3 10 -
21.06.2018 23:00:00 22,4 20,1 4 2 W 1014,3 10 -
21.06.2018 22:00:00 22,4 19,8 8 4 WSW 1014,3 10 -
21.06.2018 21:00:00 23,0 20,7 8 4 WSW 1014,3 10 -
21.06.2018 20:00:00 23,0 20,7 8 4 WSW 1014,3 10 60
21.06.2018 19:00:00 23,2 21,3 11 6 SW 1014,3 10 36
21.06.2018 18:00:00 24,2 20,5 9 5 WSW 1014,2 10 36
21.06.2018 17:00:00 24,6 18,8 11 6 W 1014,2 10 60
21.06.2018 16:00:00 24,6 20,9 8 4 W 1015,1 10 60
21.06.2018 15:00:00 24,6 20,9 11 6 SW 1015,2 10 60
21.06.2018 14:00:00 25,2 17,9 11 6 NNE 1015,4 10 60
21.06.2018 13:00:00 25,0 13,9 11 6 N 1016,1 10 60
21.06.2018 12:00:00 24,6 17,1 15 8 NNE 1015,9 10 60
21.06.2018 11:00:00 24,0 18,2 15 8 N 1015,9 10 18
21.06.2018 10:00:00 22,8 19,2 16 9 N 1015,8 10 0
21.06.2018 09:00:00 22,4 19,8 8 4 NNW 1016,1 10 0
21.06.2018 08:00:00 22,4 19,8 9 5 NNW 1015,9 10 18
21.06.2018 07:00:00 21,8 17,6 9 5 NNE 1015,2 10 36
21.06.2018 06:00:00 21,4 17,4 11 6 N 1015,4 12 0
21.06.2018 05:00:00 21,4 17,8 13 7 N 1015,6 12 -
21.06.2018 04:00:00 21,8 19,9 13 7 N 1015,8 12 -
21.06.2018 03:00:00 22,0 19,9 15 8 NNE 1016,0 12 -
21.06.2018 02:00:00 22,0 19,4 11 6 N 1016,3 12 -
21.06.2018 01:00:00 22,0 18,8 16 9 NNE 1016,3 15 -
21.06.2018 00:00:00 22,8 18,8 13 7 NNE 1016,1 15 -
20.06.2018 23:00:00 23,0 19,0 15 8 NNE 1016,1 15 -
20.06.2018 22:00:00 23,0 19,0 13 7 N 1015,9 15 -
20.06.2018 21:00:00 23,2 20,3 18 10 ENE 1015,8 15 0
20.06.2018 20:00:00 23,6 20,6 18 10 ENE 1015,6 20 0
20.06.2018 19:00:00 25,0 15,9 8 4 ENE 1015,6 20 60
20.06.2018 18:00:00 24,6 17,6 9 5 W 1015,6 20 60
20.06.2018 17:00:00 25,0 13,9 13 7 W 1015,7 20 60
20.06.2018 16:00:00 25,2 11,7 8 4 SW 1015,7 20 60
20.06.2018 15:00:00 25,6 9,4 9 5 SE 1015,8 20 60
20.06.2018 14:00:00 25,6 9,8 8 4 S 1016,0 20 60
20.06.2018 13:00:00 25,2 11,4 8 4 E 1016,0 20 60
20.06.2018 12:00:00 25,0 14,8 9 5 E 1016,0 20 60
20.06.2018 11:00:00 24,0 18,9 15 8 ENE 1015,9 20 60
20.06.2018 10:00:00 23,6 18,7 16 9 ENE 1015,7 15 42
20.06.2018 09:00:00 22,2 18,0 15 8 ENE 1015,5 12 6
20.06.2018 08:00:00 21,4 17,2 15 8 NNE 1015,3 12 12
20.06.2018 07:00:00 21,2 17,0 16 9 NNE 1014,6 12 0
20.06.2018 06:00:00 21,4 17,2 16 9 NNE 1014,2 12 0
20.06.2018 05:00:00 21,8 17,8 16 9 NNE 1013,9 12 -
20.06.2018 04:00:00 21,8 19,2 16 9 NNE 1013,9 12 -
20.06.2018 03:00:00 22,0 19,7 16 9 NNE 1013,9 12 -
20.06.2018 02:00:00 22,2 20,1 15 8 NNE 1013,9 12 -
20.06.2018 01:00:00 22,2 20,3 16 9 NNE 1013,9 12 -
20.06.2018 00:00:00 22,6 18,0 15 8 NNE 1013,8 12 -
19.06.2018 23:00:00 22,8 19,6 15 8 NNE 1013,8 12 -
19.06.2018 22:00:00 23,0 21,1 18 10 NE 1013,5 12 -
19.06.2018 21:00:00 23,0 18,8 15 8 NE 1013,0 12 0
19.06.2018 20:00:00 23,2 19,4 11 6 ENE 1012,6 15 18
19.06.2018 19:00:00 23,2 20,2 16 9 ENE 1012,3 15 60
19.06.2018 18:00:00 23,4 18,7 15 8 ENE 1012,2 15 60
19.06.2018 17:00:00 23,4 17,6 21 11 E 1011,8 15 60
19.06.2018 16:00:00 23,6 17,4 22 12 ENE 1011,8 15 60
19.06.2018 15:00:00 24,0 19,5 22 12 ENE 1011,8 15 60
19.06.2018 14:00:00 24,2 17,7 16 9 ENE 1011,7 15 60
19.06.2018 13:00:00 23,8 18,9 18 10 ENE 1011,8 15 60
19.06.2018 12:00:00 23,8 18,0 16 9 NE 1011,6 15 60
19.06.2018 11:00:00 23,8 17,5 26 14 ENE 1011,0 15 48
19.06.2018 10:00:00 23,6 16,9 18 10 NNE 1010,9 15 60
19.06.2018 09:00:00 23,2 18,5 18 10 NE 1010,7 15 60
19.06.2018 08:00:00 22,4 17,8 24 13 NNE 1010,3 15 48
19.06.2018 07:00:00 21,0 17,2 13 7 N 1010,6 10 0
19.06.2018 06:00:00 20,8 17,2 11 6 N 1010,0 10 -
19.06.2018 05:00:00 21,0 17,4 13 7 N 1010,0 10 -
19.06.2018 04:00:00 21,2 18,0 16 9 N 1010,0 10 -
19.06.2018 03:00:00 21,2 18,0 16 9 N 1010,4 10 -
19.06.2018 02:00:00 21,4 17,2 18 10 N 1010,6 10 -
19.06.2018 01:00:00 21,8 19,4 16 9 N 1010,4 10 -
19.06.2018 00:00:00 21,8 19,4 15 8 N 1010,4 10 -
18.06.2018 23:00:00 21,8 19,4 16 9 NNE 1010,4 10 -
18.06.2018 22:00:00 21,8 20,1 11 6 NNE 1010,3 10 -
18.06.2018 21:00:00 22,0 20,3 9 5 N 1009,9 10 -
18.06.2018 20:00:00 22,4 19,2 9 5 NW 1009,9 10 0
18.06.2018 19:00:00 22,4 18,6 5 3 ENE 1009,5 12 0
18.06.2018 18:00:00 22,8 21,2 5 3 SSW 1009,5 12 0
18.06.2018 17:00:00 23,0 20,7 8 4 SSW 1009,1 15 12
18.06.2018 16:00:00 23,6 21,1 9 5 SW 1008,9 15 60
18.06.2018 15:00:00 23,4 20,5 9 5 SW 1009,0 15 60
18.06.2018 14:00:00 23,2 21,1 13 7 WSW 1009,7 15 48
18.06.2018 13:00:00 22,4 20,7 13 7 SW 1009,7 15 12
18.06.2018 12:00:00 23,6 20,5 11 6 WSW 1009,7 20 48
18.06.2018 11:00:00 23,2 18,5 5 3 E 1009,6 20 54
18.06.2018 10:00:00 22,4 18,6 13 7 N 1009,6 20 60
18.06.2018 09:00:00 22,0 19,2 18 10 N 1009,7 20 60
18.06.2018 08:00:00 21,2 18,6 21 11 N 1009,3 20 60
18.06.2018 07:00:00 20,8 17,8 16 9 N 1009,1 20 18
18.06.2018 06:00:00 20,2 17,0 18 10 NNW 1009,3 15 0
18.06.2018 05:00:00 20,0 16,0 16 9 N 1010,0 10 -
18.06.2018 04:00:00 20,0 16,2 16 9 N 1010,1 10 -
18.06.2018 03:00:00 19,8 15,9 15 8 N 1010,1 10 -
18.06.2018 02:00:00 20,0 16,3 16 9 N 1010,1 10 -
18.06.2018 01:00:00 20,2 16,7 16 9 N 1010,1 10 -
18.06.2018 00:00:00 21,0 18,2 16 9 N 1010,2 10 -
17.06.2018 23:00:00 21,2 19,0 13 7 N 1010,3 10 -
17.06.2018 22:00:00 21,2 18,8 13 7 NW 1010,3 10 -
17.06.2018 21:00:00 21,2 18,8 11 6 WNW 1010,1 10 0
17.06.2018 20:00:00 20,4 18,7 9 5 NNW 1010,2 10 0
17.06.2018 19:00:00 21,6 19,7 8 4 WNW 1010,1 7 12
17.06.2018 18:00:00 22,4 19,8 11 6 W 1009,8 15 60
17.06.2018 17:00:00 22,0 19,4 9 5 WSW 1009,7 10 24
17.06.2018 16:00:00 20,8 18,2 9 5 W 1010,1 15 0
17.06.2018 15:00:00 20,8 18,2 11 6 WNW 1010,2 12 0
17.06.2018 14:00:00 21,0 17,4 16 9 NW 1010,9 12 0
17.06.2018 13:00:00 21,4 17,8 8 4 NNW 1010,7 12 0
17.06.2018 12:00:00 21,8 17,2 13 7 NW 1010,3 12 36
17.06.2018 11:00:00 22,0 18,0 15 8 NNE 1010,1 20 60
17.06.2018 10:00:00 21,6 18,0 18 10 NNE 1009,6 20 60
17.06.2018 09:00:00 21,0 17,8 16 9 N 1009,3 20 60
17.06.2018 08:00:00 21,0 18,0 16 9 NNW 1009,1 20 60
17.06.2018 07:00:00 20,8 18,2 13 7 NNW 1008,8 20 12
17.06.2018 06:00:00 20,6 18,2 15 8 NNW 1008,8 15 0
17.06.2018 05:00:00 20,2 18,0 13 7 NNW 1008,7 12 -
17.06.2018 04:00:00 - - - - - - - -
17.06.2018 03:00:00 - - - - - - - -
17.06.2018 02:00:00 20,4 18,0 11 6 NW 1008,8 12 -
17.06.2018 01:00:00 20,6 18,2 13 7 NW 1008,8 12 -
17.06.2018 00:00:00 20,6 18,2 13 7 NNW 1008,4 12 -
16.06.2018 23:00:00 21,0 18,6 15 8 NNW 1008,4 12 -
16.06.2018 22:00:00 21,0 18,8 13 7 NW 1008,0 12 -
16.06.2018 21:00:00 21,4 19,3 13 7 NW 1007,4 12 -
16.06.2018 20:00:00 22,0 19,0 9 5 W 1006,7 15 0
16.06.2018 19:00:00 22,8 15,4 13 7 NNW 1005,9 20 48

tt = Température de l'air
td = dewpoint
ff = Vitesse du vent
dd = Direction du vent
ppp = reduced air pressure
vv = visibility
sd = Ensoleillement

stations d'obs. à proximité